DW5891 Weather Reports


time (UTC)temp
F
wind
direction
speed
knots
gust
knots
rain 1hr
in
rain 24hr
in
rain mn
in
humidity
%
barometer
mb
20260504034531 60 346 10.4 0.0 0.00 0.00 0.00 40 992.9
20260504033034 62 340 16.5 0.0 0.00 0.00 0.00 38 992.6
20260504031530 63 342 20.0 0.0 0.00 0.00 0.00 36 992.2
20260504030032 66 281 9.6 0.0 0.00 0.00 0.00 34 991.4
20260504024529 66 270 10.4 0.0 0.00 0.00 0.00 33 991.3
20260504023028 67 261 10.4 0.0 0.00 0.00 0.00 33 991.1
20260504021527 68 293 10.4 0.0 0.00 0.00 0.00 33 991.0
20260504020028 69 269 12.2 0.0 0.00 0.00 0.00 33 991.0
20260504014536 70 279 13.9 0.0 0.00 0.00 0.00 32 990.9
20260504013026 71 296 14.8 0.0 0.00 0.00 0.00 31 990.9
20260504011527 72 270 16.5 0.0 0.00 0.00 0.00 27 990.8
20260504010027 73 273 15.6 0.0 0.00 0.00 0.00 24 990.9
20260504004524 73 248 13.9 0.0 0.00 0.00 0.00 24 991.0
20260504003030 74 251 14.8 0.0 0.00 0.00 0.00 23 991.1
20260504001522 74 253 14.8 0.0 0.00 0.00 0.00 24 991.2
20260504000020 75 261 16.5 0.0 0.00 0.00 0.00 22 991.5
20260503234519 75 244 17.4 0.0 0.00 0.00 0.00 22 991.7
20260503233017 75 259 16.5 0.0 0.00 0.00 0.00 21 991.7
20260503231518 76 236 17.4 0.0 0.00 0.00 0.00 21 991.9
20260503230014 75 246 13.9 0.0 0.00 0.00 0.00 26 992.1
20260503224515 75 223 14.8 0.0 0.00 0.00 0.00 25 992.3
20260503223009 75 221 14.8 0.0 0.00 0.00 0.00 24 992.7
20260503221506 74 219 14.8 0.0 0.00 0.00 0.00 26 993.1
20260503220005 73 255 14.8 0.0 0.00 0.00 0.00 25 993.6
20260503214502 74 231 13.9 0.0 0.00 0.00 0.00 24 993.8
20260503213100 72 227 13.9 0.0 0.00 0.00 0.00 24 994.4
20260503211557 72 241 12.2 0.0 0.00 0.00 0.00 26 994.7
20260503210057 73 215 13.9 0.0 0.00 0.00 0.00 27 994.9
20260503204601 72 235 13.9 0.0 0.00 0.00 0.00 29 995.1
20260503203056 71 250 15.6 0.0 0.00 0.00 0.00 27 995.3
20260503201552 72 223 14.8 0.0 0.00 0.00 0.00 31 995.4
20260503200050 73 215 13.0 0.0 0.00 0.00 0.00 29 995.6
20260503194548 72 221 13.9 0.0 0.00 0.00 0.00 28 996.0
20260503193048 73 231 16.5 0.0 0.00 0.00 0.00 30 996.3
20260503191543 72 234 17.4 0.0 0.00 0.00 0.00 31 996.6
20260503190046 71 236 15.6 0.0 0.00 0.00 0.00 33 997.0
20260503184542 71 248 18.2 0.0 0.00 0.00 0.00 33 997.4
20260503183037 71 230 16.5 0.0 0.00 0.00 0.00 33 997.8
20260503181534 71 270 16.5 0.0 0.00 0.00 0.00 32 998.1
20260503180044 70 213 15.6 0.0 0.00 0.00 0.00 33 998.4
20260503174532 69 232 19.1 0.0 0.00 0.00 0.00 34 998.8
20260503173028 69 245 16.5 0.0 0.00 0.00 0.00 33 999.1
20260503171528 68 221 15.6 0.0 0.00 0.00 0.00 36 999.2
20260503081517 42 161 5.2 0.0 0.00 0.00 0.00 66 1003.7
20260503071510 42 159 4.3 0.0 0.00 0.00 0.00 64 1003.9
20260503060113 39 172 2.6 0.0 0.00 0.00 0.00 73 1003.9
20260503054619 39 165 2.6 0.0 0.00 0.00 0.00 74 1003.9
20260503053053 39 165 2.6 0.0 0.00 0.00 0.00 74 1003.9
20260503051551 39 167 1.7 0.0 0.00 0.00 0.00 73 1003.9
20260503050050 39 168 2.6 0.0 0.00 0.00 0.00 73 1003.9
20260503044549 39 169 3.5 0.0 0.00 0.00 0.00 72 1004.1
20260503043050 40 169 3.5 0.0 0.00 0.00 0.00 71 1004.1
20260503041544 41 161 1.7 0.0 0.00 0.00 0.00 69 1004.0
20260503040052 41 159 2.6 0.0 0.00 0.00 0.00 67 1004.0